[[{"header":{"parameterUnit":"m.s-1","parameterCategory":1,"la1":30.2991,"la2":30.254,"lo1":-89.0895,"lo2":-89.0444,"dy":0.0017,"dx":0.0017,"nx":28,"ny":28,"refTime":"2025-03-13T09:00:00:Z","depth":0,"parameterNumber":2,"parameterNumberName":"U-component_of_WINDS"},"data":[0,0,0,0,0,0,0,0,0,0,0,0,0,0,0,0,0,0,0,0,0,0,0,0,0,0,0,0,0,0,0,0,0,0,0,0,0,0,0,0,0,0,0,0,0,0,0,0,0,0,0,0,0,0,0,0,0,0,-0.1288,-0.1288,0,-0.1328,-0.1328,-0.1329,-0.136,-0.136,-0.136,-0.1361,-0.1405,-0.1406,-0.1407,0,0,0,0,0,0,0,0,0,0,0,0,0,-0.1242,-0.1243,-0.1288,-0.1288,-0.1289,-0.1328,-0.1328,-0.1329,-0.136,-0.136,-0.1361,-0.1361,-0.1405,-0.1406,-0.1407,0,0,0,0,0,0,0,0,0,0,0,0,0,-0.127,-0.1243,-0.1288,-0.1309,-0.1311,-0.1328,-0.1328,-0.1329,-0.136,-0.136,-0.1361,-0.1361,-0.1404,-0.1406,-0.1407,-0.1406,0,0,-0.1411,-0.1412,0,0,0,0,0,0,0,0,-0.1268,-0.1272,-0.1305,-0.1308,-0.131,-0.1339,-0.1328,-0.1355,-0.136,-0.1341,-0.1361,-0.1361,-0.1383,-0.1386,-0.1393,-0.1408,-0.141,-0.1411,-0.1412,-0.1413,-0.1413,0,0,0,0,0,0,0,-0.1266,-0.127,-0.1304,-0.1306,-0.1309,-0.1318,-0.1322,-0.1333,-0.1359,-0.1343,-0.1345,-0.135,-0.1384,-0.1391,-0.1394,-0.1411,-0.1411,-0.1412,-0.1413,-0.1414,-0.1429,-0.1428,0,0,0,0,0,0,-0.1261,-0.1268,-0.1303,-0.1305,-0.129,-0.1318,-0.1323,-0.133,-0.1359,-0.1364,-0.1349,-0.1351,-0.1389,-0.1392,-0.1396,-0.1397,-0.1413,-0.1414,-0.1415,-0.1429,-0.1429,-0.1428,0,0,0,0,0,0,-0.1259,-0.1263,-0.1301,-0.1287,-0.1293,-0.1318,-0.1325,-0.133,-0.1337,-0.1364,-0.1369,-0.1351,-0.1389,-0.1394,-0.1403,-0.1399,-0.1414,-0.1416,-0.143,-0.1429,-0.1428,-0.14,0,0,0,0,0,0,-0.1258,-0.1263,-0.1262,-0.1287,-0.1293,-0.1307,-0.1325,-0.1331,-0.1339,-0.1341,-0.1367,-0.1372,-0.139,-0.1401,-0.1405,-0.1401,-0.1417,-0.143,-0.1429,-0.1429,-0.1401,-0.1398,-0.1395,0,0,0,0,0,-0.1256,-0.1253,-0.1262,-0.1266,-0.1293,-0.1307,-0.131,-0.133,-0.1338,-0.1338,-0.1356,-0.1371,-0.1399,-0.1402,-0.1406,-0.1403,-0.1431,-0.143,-0.1429,-0.1402,-0.1399,-0.1396,0,0,0,0,0,0,-0.1228,-0.1257,-0.1267,-0.1271,-0.1286,-0.1312,-0.1312,-0.1326,-0.1339,-0.1341,-0.1367,-0.1372,-0.1379,-0.1392,-0.1395,-0.1404,-0.1417,-0.1417,-0.1395,-0.1392,-0.1389,-0.1386,-0.1418,0,0,0,0,0,-0.1222,-0.123,-0.1255,-0.1257,-0.1264,-0.1286,-0.1293,-0.1307,-0.1324,-0.1331,-0.1349,-0.1365,-0.1378,-0.1386,-0.1399,-0.1403,-0.1409,-0.1403,-0.14,-0.1398,-0.1398,-0.1401,-0.1399,-0.1425,-0.1425,-0.1425,0,0,-0.1211,-0.1227,-0.1231,-0.1252,-0.1265,-0.1273,-0.1292,-0.13,-0.1307,-0.1333,-0.1342,-0.1356,-0.1376,-0.1383,-0.1387,-0.1394,-0.1392,-0.1397,-0.1395,-0.1396,-0.14,-0.1397,-0.1395,-0.1425,-0.1425,-0.1425,0,0,-0.1194,-0.1207,-0.121,-0.1222,-0.1241,-0.1257,-0.1257,-0.1281,-0.129,-0.13,-0.132,-0.1329,-0.135,-0.1363,-0.1373,-0.1361,-0.1376,-0.1365,-0.135,-0.1353,-0.1351,-0.135,-0.1345,-0.1344,-0.1364,-0.1364,-0.1364,0,-0.1178,-0.119,-0.121,-0.1217,-0.1225,-0.1248,-0.1251,-0.1263,-0.1286,-0.1292,-0.1299,-0.1325,-0.1341,-0.1351,-0.1348,-0.1355,-0.1357,-0.1362,-0.135,-0.1348,-0.1347,-0.1343,-0.1342,-0.1363,-0.1363,-0.1363,-0.1363,0,-0.1169,-0.1177,-0.1177,-0.1197,-0.1206,-0.1211,-0.1233,-0.1239,-0.1253,-0.1267,-0.1277,-0.1296,-0.1314,-0.1317,-0.1331,-0.133,-0.1333,-0.1345,-0.1358,-0.1343,-0.134,-0.1338,-0.1361,-0.1361,-0.1362,-0.1362,0,0,-0.1136,-0.1166,-0.1166,-0.1175,-0.1198,-0.1205,-0.1212,-0.1227,-0.1232,-0.1248,-0.1254,-0.1271,-0.1282,-0.1293,-0.1308,-0.131,-0.13,-0.1322,-0.1323,-0.1317,-0.13,-0.1291,-0.1289,-0.131,-0.1309,-0.1309,-0.1298,0,-0.1123,-0.1134,-0.1152,-0.1158,-0.1166,-0.1187,-0.1193,-0.1208,-0.1222,-0.1232,-0.1248,-0.1259,-0.1272,-0.1279,-0.1283,-0.13,-0.1297,-0.1301,-0.1317,-0.1317,-0.1311,-0.1288,-0.1278,-0.1267,-0.1297,-0.1297,-0.1297,0,-0.1109,-0.1121,-0.1127,-0.1149,-0.1153,-0.1158,-0.1173,-0.1182,-0.12,-0.121,-0.1222,-0.1238,-0.1247,-0.1258,-0.1271,-0.1274,-0.1282,-0.1291,-0.1291,-0.1294,-0.1306,-0.1289,-0.1264,-0.1262,-0.1295,-0.1295,-0.1296,0,-0.1084,-0.1103,-0.1109,-0.1116,-0.1141,-0.1144,-0.1155,-0.1173,-0.1181,-0.1195,-0.1201,-0.1216,-0.1225,-0.1237,-0.1257,-0.1264,-0.1268,-0.1282,-0.1277,-0.1277,-0.1278,-0.1277,-0.1253,-0.1282,-0.1282,-0.1282,-0.1282,0,-0.1068,-0.1071,-0.1098,-0.1102,-0.1106,-0.1127,-0.1131,-0.1144,-0.116,-0.1167,-0.1187,-0.1194,-0.122,-0.123,-0.1247,-0.1255,-0.1259,-0.1268,-0.1272,-0.1266,-0.1265,-0.1271,-0.1273,-0.1282,-0.1282,-0.1282,-0.1282,0,-0.1041,-0.1059,-0.1067,-0.109,-0.1096,-0.1098,-0.1118,-0.1123,-0.1138,-0.1147,-0.1151,-0.1174,-0.1187,-0.1209,-0.1228,-0.1239,-0.1245,-0.1252,-0.1238,-0.1241,-0.1235,-0.1236,-0.1215,-0.1213,-0.1243,-0.1242,-0.1242,0,-0.103,-0.1032,-0.1055,-0.1061,-0.107,-0.108,-0.1088,-0.1109,-0.1116,-0.1136,-0.1139,-0.1153,-0.1166,-0.1186,-0.1205,-0.1221,-0.1228,-0.122,-0.1231,-0.1225,-0.1228,-0.1228,-0.1229,-0.1217,-0.1217,-0.1217,-0.1216,0,-0.1007,-0.1016,-0.1026,-0.1039,-0.1048,-0.1059,-0.1072,-0.1076,-0.11,-0.1108,-0.1121,-0.113,-0.115,-0.1164,-0.1181,-0.1194,-0.121,-0.1213,-0.1213,-0.1206,-0.1198,-0.1203,-0.1231,-0.1213,-0.1213,-0.1214,-0.1214,-0.1214,-0.0988,-0.0991,-0.1007,-0.1018,-0.1029,-0.1041,-0.1046,-0.1061,-0.1072,-0.1088,-0.11,-0.1112,-0.113,-0.1155,-0.1167,-0.1178,-0.1185,-0.1184,-0.1184,-0.1184,-0.1182,-0.1196,-0.1181,-0.1181,-0.1181,-0.1181,-0.1182,0,-0.0967,-0.0978,-0.0987,-0.1004,-0.1012,-0.1024,-0.1039,-0.1046,-0.1056,-0.107,-0.1082,-0.1097,-0.111,-0.1131,-0.1146,-0.1151,-0.1158,-0.1154,-0.1154,-0.1157,-0.1175,-0.1173,-0.1148,-0.1148,-0.1148,-0.1148,-0.1148,-0.1148,-0.0956,-0.0962,-0.0973,-0.0985,-0.0997,-0.1007,-0.1015,-0.1026,-0.1038,-0.1052,-0.1063,-0.1076,-0.1093,-0.111,-0.1124,-0.1129,-0.1134,-0.1128,-0.1136,-0.1152,-0.1156,-0.1159,-0.1157,-0.1129,-0.1129,-0.1117,-0.1117,-0.1117]},{"header":{"parameterUnit":"m.s-1","parameterCategory":1,"la1":30.2991,"la2":30.254,"lo1":-89.0895,"lo2":-89.0444,"dy":0.0017,"dx":0.0017,"nx":28,"ny":28,"refTime":"2025-03-13T09:00:00:Z","depth":0,"parameterNumber":3,"parameterNumberName":"V-component_of_WINDS"},"data":[0,0,0,0,0,0,0,0,0,0,0,0,0,0,0,0,0,0,0,0,0,0,0,0,0,0,0,0,0,0,0,0,0,0,0,0,0,0,0,0,0,0,0,0,0,0,0,0,0,0,0,0,0,0,0,0,0,0,7.0839,7.0841,0,7.1052,7.1055,7.1057,7.1062,7.106,7.1057,7.1055,7.1271,7.1279,7.1287,0,0,0,0,0,0,0,0,0,0,0,0,0,7.0436,7.0443,7.0839,7.0841,7.0844,7.1052,7.1055,7.1058,7.1063,7.1059,7.1056,7.1053,7.1268,7.1278,7.1288,0,0,0,0,0,0,0,0,0,0,0,0,0,7.0626,7.0445,7.0838,7.0872,7.0877,7.1051,7.1055,7.1058,7.1063,7.1059,7.1055,7.1052,7.1265,7.1277,7.1289,7.1443,0,0,7.1326,7.1332,0,0,0,0,0,0,0,0,7.0615,7.0641,7.0864,7.087,7.0876,7.1027,7.0992,7.1187,7.1064,7.0992,7.1054,7.105,7.1193,7.121,7.1259,7.1454,7.1463,7.1328,7.1335,7.134,7.1344,0,0,0,0,0,0,0,7.0602,7.0632,7.0923,7.0867,7.0874,7.0876,7.0899,7.1029,7.1112,7.0998,7.0999,7.1025,7.1195,7.1247,7.1264,7.1466,7.1327,7.1338,7.1346,7.135,7.1802,7.1807,0,0,0,0,0,0,7.0582,7.0621,7.0916,7.0929,7.0733,7.0886,7.0912,7.0982,7.111,7.1126,7.1028,7.1024,7.1228,7.125,7.1272,7.1465,7.134,7.1352,7.1359,7.1798,7.1803,7.1808,0,0,0,0,0,0,7.0574,7.0609,7.0908,7.0775,7.0814,7.0898,7.0976,7.0988,7.1041,7.1133,7.1147,7.1066,7.1226,7.1254,7.1402,7.1472,7.1357,7.1368,7.1792,7.18,7.1806,7.1849,0,0,0,0,0,0,7.0562,7.0605,7.0665,7.0777,7.0821,7.1034,7.0981,7.0995,7.1062,7.1059,7.1172,7.1187,7.1225,7.1384,7.1414,7.1487,7.1378,7.1786,7.1796,7.1804,7.1842,7.1857,7.1869,0,0,0,0,0,7.0548,7.0667,7.0668,7.0703,7.0897,7.1038,7.1063,7.1105,7.1068,7.1129,7.1188,7.1184,7.1459,7.1399,7.1433,7.1511,7.1782,7.1793,7.1803,7.1836,7.1854,7.1869,0,0,0,0,0,0,7.0559,7.0682,7.0684,7.0843,7.0931,7.1039,7.1117,7.1122,7.1221,7.1214,7.126,7.1286,7.1433,7.1486,7.1417,7.1669,7.1616,7.1634,7.1629,7.1647,7.1661,7.1646,7.1388,0,0,0,0,0,7.058,7.0686,7.0787,7.0918,7.0961,7.1032,7.1095,7.112,7.1211,7.1248,7.1318,7.1407,7.1514,7.1583,7.1686,7.1849,7.1875,7.192,7.1933,7.1944,7.196,7.2054,7.2075,7.1843,7.1843,7.1842,0,0,7.0625,7.0705,7.0768,7.0922,7.0993,7.1101,7.1062,7.1178,7.1259,7.1265,7.141,7.1465,7.1567,7.1724,7.1796,7.1773,7.203,7.1957,7.1965,7.1975,7.2066,7.2088,7.2108,7.185,7.1848,7.1847,0,0,7.0763,7.0833,7.0951,7.1024,7.1132,7.1178,7.1207,7.1315,7.1353,7.1499,7.1507,7.1604,7.1786,7.186,7.1921,7.209,7.2091,7.2122,7.2195,7.2286,7.2304,7.2321,7.2384,7.2406,7.2137,7.2137,7.2137,0,7.0804,7.0968,7.1011,7.1129,7.1197,7.1209,7.1331,7.1398,7.1534,7.1581,7.1552,7.1784,7.1854,7.203,7.2072,7.212,7.2156,7.211,7.2298,7.2315,7.2331,7.2393,7.2416,7.214,7.214,7.214,7.2139,0,7.1016,7.113,7.1213,7.1347,7.1424,7.1542,7.1604,7.1677,7.1696,7.1746,7.1896,7.198,7.2103,7.2146,7.2163,7.2326,7.2308,7.2288,7.2237,7.2356,7.2415,7.2438,7.2145,7.2144,7.2143,7.2142,0,0,7.1166,7.1324,7.1354,7.1417,7.1538,7.1627,7.1747,7.1868,7.1932,7.2025,7.2128,7.2284,7.2268,7.2337,7.2364,7.2444,7.2577,7.2415,7.2418,7.2445,7.2765,7.2781,7.2807,7.2577,7.2582,7.2586,7.2757,0,7.1319,7.1534,7.1578,7.1764,7.1872,7.1886,7.1991,7.2077,7.2128,7.2226,7.2281,7.2392,7.236,7.2403,7.2482,7.2544,7.2642,7.2532,7.2676,7.268,7.2652,7.2837,7.2854,7.3011,7.278,7.2784,7.2786,0,7.1526,7.1628,7.1826,7.1937,7.1983,7.2077,7.2194,7.2287,7.2386,7.2417,7.2497,7.2516,7.2643,7.2584,7.276,7.2684,7.2745,7.2785,7.2792,7.2809,7.2742,7.2861,7.3062,7.3087,7.2822,7.2819,7.2817,0,7.1619,7.1805,7.1949,7.2002,7.2134,7.22,7.2258,7.2353,7.2425,7.2526,7.2573,7.2687,7.275,7.2838,7.2888,7.284,7.3062,7.3007,7.3093,7.3092,7.314,7.3137,7.3357,7.3175,7.3175,7.3175,7.3174,0,7.1787,7.1908,7.1994,7.2082,7.2219,7.2268,7.2403,7.246,7.2545,7.2646,7.2664,7.2758,7.2817,7.2919,7.2959,7.3101,7.3128,7.3158,7.3168,7.3158,7.3155,7.32,7.3192,7.3181,7.318,7.3178,7.3177,0,7.1915,7.1977,7.2135,7.2248,7.228,7.2376,7.2474,7.2561,7.2612,7.2739,7.2772,7.2852,7.2974,7.3033,7.3183,7.321,7.3372,7.3372,7.3339,7.3343,7.3428,7.342,7.3686,7.3725,7.3515,7.3517,7.3519,0,7.2019,7.2113,7.2238,7.2308,7.2368,7.2479,7.2554,7.2606,7.2682,7.2804,7.2877,7.3001,7.3102,7.3297,7.3369,7.3485,7.349,7.3576,7.3508,7.3497,7.3496,7.3491,7.3502,7.3588,7.359,7.3592,7.3593,0,7.2198,7.2225,7.2332,7.2451,7.2539,7.2634,7.2728,7.2784,7.2851,7.2936,7.3063,7.3142,7.3298,7.3421,7.3543,7.3602,7.3611,7.3614,7.3641,7.3634,7.3612,7.3628,7.3375,7.3608,7.3607,7.3606,7.3605,7.3604,7.232,7.2406,7.2509,7.2628,7.2705,7.2793,7.2882,7.2945,7.3052,7.3184,7.3208,7.3343,7.3443,7.3608,7.3672,7.3779,7.3759,7.3797,7.3807,7.3816,7.3823,7.3593,7.38,7.38,7.38,7.3799,7.3799,0,7.2503,7.2571,7.268,7.2812,7.2907,7.2907,7.3012,7.3091,7.321,7.3302,7.3403,7.355,7.3671,7.3753,7.3875,7.3945,7.3952,7.3976,7.3973,7.3987,7.3831,7.3798,7.3969,7.3968,7.3968,7.3968,7.3968,7.3968,7.261,7.2757,7.2797,7.2983,7.3049,7.3183,7.3244,7.3326,7.3401,7.3565,7.3666,7.3719,7.3808,7.3938,7.4049,7.407,7.4116,7.414,7.4161,7.4015,7.3997,7.398,7.3949,7.4149,7.4149,7.4309,7.431,7.4311]}]]